^^
Saratoga-Weather Station Historical Data
Daily Summary for March 5, 2021 Units:  English    Metric   Both
Daily Weekly Monthly Yearly Custom
  High: Low: Average:
Temperature: 48 °F 39.9 °F 43.3 °F
Dew Point: 45 °F 34.7 °F 38.3 °F
Humidity: 90% 76% 82%
Wind Speed: 8.1mph 0mph 3.6mph
Wind Gust: 15mph - -
Wind- - West
Pressure: 29.7 in 29.7 in -
Precipitation: 0 in    
Historical Graphs
 
 
Tabular Data for March 5, 2021
Time Temperature Dew Point Pressure Wind Wind Speed Wind Gust Humidity Rainfall Rate (Hourly) solar
00:04 48 °F 45 °F 29.7 in NW 4 mph 8 mph 89% 0 in 0 W/m2
00:09 48 °F 45 °F 29.7 in West 6 mph 9 mph 89% 0 in 0 W/m2
00:14 47.8 °F 44.8 °F 29.7 in West 6 mph 8 mph 89% 0 in 0 W/m2
00:19 48 °F 45 °F 29.7 in West 0.9 mph 4 mph 89% 0 in 0 W/m2
00:24 47.8 °F 44.8 °F 29.7 in WSW 8.1 mph 8 mph 89% 0 in 0 W/m2
00:29 47.8 °F 44.8 °F 29.7 in West 2.9 mph 6 mph 89% 0 in 0 W/m2
00:34 47.7 °F 44.6 °F 29.7 in West 4 mph 6 mph 89% 0 in 0 W/m2
00:39 47.7 °F 45 °F 29.7 in West 6 mph 6 mph 90% 0 in 0 W/m2
00:44 47.5 °F 44.8 °F 29.7 in WSW 4 mph 10 mph 90% 0 in 0 W/m2
00:49 47.5 °F 44.8 °F 29.7 in West 2.9 mph 6 mph 90% 0 in 0 W/m2
00:54 47.1 °F 44.4 °F 29.7 in West 6 mph 9 mph 90% 0 in 0 W/m2
00:59 47.1 °F 44.4 °F 29.7 in WSW 2.9 mph 6 mph 90% 0 in 0 W/m2
01:04 46.9 °F 44.2 °F 29.7 in West 2.9 mph 7 mph 90% 0 in 0 W/m2
01:09 46.9 °F 44.2 °F 29.7 in WNW 2.9 mph 6 mph 90% 0 in 0 W/m2
01:14 46.8 °F 44.1 °F 29.7 in WNW 2 mph 6 mph 90% 0 in 0 W/m2
01:19 46.8 °F 44.1 °F 29.7 in West 4 mph 8 mph 90% 0 in 0 W/m2
01:24 46.6 °F 43.5 °F 29.7 in West 2 mph 11 mph 89% 0 in 0 W/m2
01:29 46.6 °F 43.5 °F 29.7 in West 2.9 mph 9 mph 89% 0 in 0 W/m2
01:34 46.4 °F 43.3 °F 29.7 in WSW 4 mph 11 mph 89% 0 in 0 W/m2
01:39 46.2 °F 43.2 °F 29.7 in SW 6 mph 7 mph 89% 0 in 0 W/m2
01:44 46.2 °F 42.8 °F 29.7 in WSW 4.9 mph 9 mph 88% 0 in 0 W/m2
01:49 46 °F 42.6 °F 29.7 in WNW 2.9 mph 7 mph 88% 0 in 0 W/m2
01:54 45.9 °F 41.9 °F 29.7 in WNW 2 mph 7 mph 86% 0 in 0 W/m2
01:59 45.9 °F 41.9 °F 29.7 in West 2 mph 8 mph 86% 0 in 0 W/m2
02:04 45.9 °F 41.4 °F 29.7 in WSW 4 mph 5 mph 84% 0 in 0 W/m2
02:09 45.7 °F 40.8 °F 29.7 in West 2 mph 4 mph 83% 0 in 0 W/m2
02:14 45.7 °F 40.8 °F 29.7 in West 4 mph 6 mph 83% 0 in 0 W/m2
02:19 45.5 °F 40.3 °F 29.7 in NW 2.9 mph 4 mph 82% 0 in 0 W/m2
02:24 45.3 °F 39.9 °F 29.7 in Calm   6 mph 81% 0 in 0 W/m2
02:29 45.1 °F 39.4 °F 29.7 in West 2.9 mph 7 mph 80% 0 in 0 W/m2
02:34 45.1 °F 39.4 °F 29.7 in WSW 2.9 mph 5 mph 80% 0 in 0 W/m2
02:39 45 °F 38.1 °F 29.7 in WNW 2.9 mph 9 mph 77% 0 in 0 W/m2
02:44 45 °F 38.1 °F 29.7 in WNW 4 mph 5 mph 77% 0 in 0 W/m2
02:49 45 °F 38.1 °F 29.7 in WSW 2 mph 9 mph 77% 0 in 0 W/m2
02:54 44.8 °F 37.9 °F 29.7 in WSW 2 mph 8 mph 77% 0 in 0 W/m2
02:59 44.4 °F 37.6 °F 29.7 in West 6 mph 6 mph 77% 0 in 0 W/m2
03:04 44.4 °F 37.6 °F 29.7 in West 2 mph 7 mph 77% 0 in 0 W/m2
03:09 44.2 °F 37.6 °F 29.7 in WSW 4.9 mph 8 mph 77% 0 in 0 W/m2
03:14 44.1 °F 37.4 °F 29.7 in West 2 mph 3 mph 77% 0 in 0 W/m2
03:19 44.1 °F 37 °F 29.7 in WNW 4 mph 5 mph 76% 0 in 0 W/m2
03:24 43.9 °F 36.9 °F 29.7 in West 4 mph 7 mph 76% 0 in 0 W/m2
03:29 43.7 °F 36.7 °F 29.7 in West 2.9 mph 6 mph 76% 0 in 0 W/m2
03:34 43.5 °F 36.5 °F 29.7 in West 6 mph 8 mph 76% 0 in 0 W/m2
03:39 43.5 °F 36.5 °F 29.7 in WSW 2.9 mph 7 mph 76% 0 in 0 W/m2
03:45 43.5 °F 36.5 °F 29.7 in West 6 mph 6 mph 76% 0 in 0 W/m2
03:50 43.3 °F 36.7 °F 29.7 in West 2 mph 3 mph 77% 0 in 0 W/m2
03:55 43.3 °F 36.7 °F 29.7 in WNW 4.9 mph 7 mph 77% 0 in 0 W/m2
04:00 43.2 °F 36.5 °F 29.7 in WNW 2.9 mph 8 mph 77% 0 in 0 W/m2
04:05 43 °F 36.3 °F 29.7 in West 2 mph 7 mph 77% 0 in 0 W/m2
04:10 43 °F 36.3 °F 29.7 in WNW 2.9 mph 6 mph 77% 0 in 0 W/m2
04:15 42.8 °F 36.1 °F 29.7 in WNW 2.9 mph 5 mph 77% 0 in 0 W/m2
04:20 42.6 °F 36 °F 29.7 in West 2.9 mph 7 mph 77% 0 in 0 W/m2
04:25 42.4 °F 36.1 °F 29.7 in WNW 2.9 mph 6 mph 78% 0 in 0 W/m2
04:30 42.4 °F 36.1 °F 29.7 in NW 4 mph 4 mph 78% 0 in 0 W/m2
04:35 42.3 °F 36 °F 29.7 in WNW 0.9 mph 4 mph 78% 0 in 0 W/m2
04:40 42.1 °F 35.8 °F 29.7 in WNW 2 mph 8 mph 78% 0 in 0 W/m2
04:45 41.9 °F 35.6 °F 29.7 in WNW 4.9 mph 7 mph 78% 0 in 0 W/m2
04:50 41.9 °F 35.6 °F 29.7 in WNW 4 mph 14 mph 78% 0 in 0 W/m2
04:55 41.7 °F 35.4 °F 29.7 in West 4 mph 10 mph 78% 0 in 0 W/m2
05:00 41.7 °F 35.4 °F 29.7 in WNW 2 mph 11 mph 78% 0 in 0 W/m2
05:05 41.5 °F 35.2 °F 29.7 in West 2 mph 7 mph 78% 0 in 0 W/m2
05:10 41.4 °F 35.4 °F 29.7 in WNW 2 mph 10 mph 79% 0 in 0 W/m2
05:15 41.2 °F 35.2 °F 29.7 in SW 4 mph 6 mph 79% 0 in 0 W/m2
05:20 41.2 °F 35.2 °F 29.7 in WSW 2 mph 10 mph 79% 0 in 0 W/m2
05:25 40.8 °F 35.1 °F 29.7 in West 2.9 mph 6 mph 80% 0 in 0 W/m2
05:30 40.8 °F 35.1 °F 29.7 in WNW 2.9 mph 6 mph 80% 0 in 0 W/m2
05:35 40.6 °F 34.9 °F 29.7 in WNW 4 mph 8 mph 80% 0 in 0 W/m2
05:40 40.6 °F 34.9 °F 29.7 in WNW 2.9 mph 9 mph 80% 0 in 0 W/m2
05:45 40.5 °F 34.7 °F 29.7 in WNW 2.9 mph 6 mph 80% 0 in 0 W/m2
05:50 40.5 °F 35.1 °F 29.7 in West 4 mph 8 mph 81% 0 in 0 W/m2
05:55 40.3 °F 34.9 °F 29.7 in WSW 2.9 mph 7 mph 81% 0 in 0 W/m2
06:00 40.3 °F 34.9 °F 29.7 in West 4 mph 8 mph 81% 0 in 0 W/m2
06:05 40.3 °F 35.2 °F 29.7 in WNW 2 mph 7 mph 82% 0 in 0 W/m2
06:10 40.1 °F 35.1 °F 29.7 in NW 2.9 mph 8 mph 82% 0 in 0 W/m2
06:15 39.9 °F 34.9 °F 29.7 in West 2 mph 8 mph 82% 0 in 5 W/m2
06:20 39.9 °F 34.9 °F 29.7 in West 2.9 mph 8 mph 82% 0 in 9 W/m2
06:25 39.9 °F 35.2 °F 29.7 in West 2.9 mph 7 mph 83% 0 in 11 W/m2
06:30 39.9 °F 35.2 °F 29.7 in WNW 4 mph 5 mph 83% 0 in 12 W/m2
06:35 39.9 °F 35.2 °F 29.7 in WNW 2.9 mph 3 mph 83% 0 in 16 W/m2
06:40 39.9 °F 35.2 °F 29.7 in SSW 0.9 mph 7 mph 83% 0 in 18 W/m2
06:45 39.9 °F 35.2 °F 29.7 in West 8.1 mph 8 mph 83% 0 in 21 W/m2
06:50 40.1 °F 35.4 °F 29.7 in West 2.9 mph 7 mph 83% 0 in 23 W/m2
06:55 40.3 °F 35.8 °F 29.7 in West 8 mph 8 mph 84% 0 in 26 W/m2
07:01 40.3 °F 35.6 °F 29.7 in NNW 0.9 mph 7 mph 83% 0 in 35 W/m2
07:06 40.5 °F 36 °F 29.7 in West 6.9 mph 8 mph 84% 0 in 33 W/m2
07:11 40.5 °F 36 °F 29.7 in West 4 mph 7 mph 84% 0 in 35 W/m2
07:16 40.6 °F 36.1 °F 29.7 in WNW 6 mph 9 mph 84% 0 in 54 W/m2
07:21 40.6 °F 36.1 °F 29.7 in SW 2.9 mph 10 mph 84% 0 in 67 W/m2
07:26 40.8 °F 36.3 °F 29.7 in WSW 6.9 mph 7 mph 84% 0 in 102 W/m2
07:31 41 °F 36.5 °F 29.7 in NW 4.9 mph 10 mph 84% 0 in 62 W/m2
07:36 41.2 °F 36.7 °F 29.7 in NW 4.9 mph 9 mph 84% 0 in 84 W/m2
07:41 41.5 °F 37 °F 29.7 in WSW 2.9 mph 8 mph 84% 0 in 65 W/m2
07:46 41.5 °F 36.7 °F 29.7 in WNW 4.9 mph 11 mph 83% 0 in 72 W/m2
07:51 41.7 °F 36.9 °F 29.7 in West 6 mph 10 mph 83% 0 in 69 W/m2
07:56 42.3 °F 37.4 °F 29.7 in SW 4.9 mph 10 mph 83% 0 in 109 W/m2
08:01 42.4 °F 37.6 °F 29.7 in SW 2.9 mph 7 mph 83% 0 in 118 W/m2
08:06 43 °F 37.9 °F 29.7 in WSW 4 mph 11 mph 82% 0 in 72 W/m2
08:11 43.2 °F 37.8 °F 29.7 in WNW 6.9 mph 15 mph 81% 0 in 54 W/m2
Juneau County Weather
Compliments of Weather Underground - 2 mb